Regional Weather Roundup
Issued by NWS

Home | Current Version | Previous Version | Graphics & Text | Print | Product List | Glossary On
Versions: 1 2 3 4 5 6 7 8 9 10 11 12 13 14 15 16 17 18 19 20 21 22 23 24 25 26 27 28 29 30 31 32 33 34 35 36 37 38 39 40 41 42 43 44 45 46 47 48 49 50
000
ASUS43 KMKX 282111
RWRWI

WISCONSIN REGIONAL WEATHER ROUNDUP
NATIONAL WEATHER SERVICE MILWAUKEE/SULLIVAN WI
400 PM CDT WED JUN 28 2017

NOTE: "FAIR" INDICATES FEW OR NO CLOUDS BELOW 12,000 FEET WITH NO
SIGNIFICANT WEATHER AND/OR OBSTRUCTIONS TO VISIBILITY.

WIZ001-002-006>008-014>016-023>028-282200-
NORTHWEST WISCONSIN

CITY           SKY/WX    TMP DP  RH WIND       PRES   REMARKS
SUPERIOR ARPT  NOT AVBL
ASHLAND        LGT RAIN  64  63  96 E5        29.59F FOG
HAYWARD        CLOUDY    67  63  87 S7        29.58F
SIREN          MOSUNNY   72  67  83 SE10      29.52F
CUMBERLAND     CLOUDY    70  64  83 S12G18    29.56F
RICE LAKE      CLOUDY    71  66  83 SE12      29.58F
CHETEK         CLOUDY    72  67  83 S12G21    29.57F
LADYSMITH      CLOUDY    67  65  95 S8        29.63F
EAU CLAIRE     PTSUNNY   72  65  78 S16G26    29.57F
MENOMONIE      LGT RAIN  72  66  82 SE12      29.56F
NEW RICHMOND   CLOUDY    74  66  76 S16G22    29.53F
OSCEOLA        HVY RAIN  71  64  79 W6G24     29.54F
$$

WIZ003>005-009-010-017-018-282200-
NORTH CENTRAL WISCONSIN

CITY           SKY/WX    TMP DP  RH WIND       PRES   REMARKS
MANITOWISH WTR LGT RAIN  61  61 100 S8        29.67S
ARBOR VITAE    LGT RAIN  62  60  94 S10G20    29.67F
WOODRUFF       LGT RAIN  62  60  94 S10G20    29.67F
RHINELANDER    CLOUDY    61  61 100 S7        29.71S
EAGLE RIVER    DRIZZLE   62  61  97 S10       29.70S
LAND O LAKES   LGT RAIN  63  61  94 S7        29.71S
PHILLIPS       LGT RAIN  63  63 100 S6        29.65S
TOMAHAWK       NOT AVBL
MEDFORD        CLOUDY    65  63  91 S12       29.66F
MERRILL        CLOUDY    64  64 100 S7        29.70F
$$

WIZ029-030-035-036-043>047-282200-
CENTRAL WISCONSIN

CITY           SKY/WX    TMP DP  RH WIND       PRES   REMARKS
WAUSAU         CLOUDY    67  65  93 S9        29.68F
MOSINEE        LGT RAIN  66  66 100 S13       29.71F
MARSHFIELD     CLOUDY    67  63  87 S17G28    29.67F
STEVENS POINT  CLOUDY    64  64 100 S10G16    29.71F
WAUPACA        HVY RAIN  68  66  94 S13G18    29.75R
WAUTOMA        LGT RAIN  65  64  97 S9        29.74F
WISC RAPIDS    CLOUDY    67  65  93 S12G20    29.71F
CAMP DOUGLAS   CLOUDY    68  66  94 SE10      29.66F
$$

WIZ011>013-019>022-031-037>040-048>050-282200-
NORTHEAST WISCONSIN

CITY           SKY/WX    TMP DP  RH WIND       PRES   REMARKS
ANTIGO         CLOUDY    61  61 100 S10       29.73S
SHAWANO        CLOUDY    66  64  94 S6        29.73S
OCONTO         CLOUDY    62  61  96 S8        29.75S
STURGEON BAY   LGT RAIN  59  58  96 S18G25    29.77F
GREEN BAY      CLOUDY    67  66  97 S12G20    29.75F
MANITOWOC      RAIN      60  58  92 S21       29.78F FOG
APPLETON       LGT RAIN  64  64 100 S17G24    29.75S
CLINTONVILLE   CLOUDY    64  64 100 S12G18    29.74S
OSHKOSH        CLOUDY    65  63  93 S9        29.77F
$$

WIZ032>034-041-042-053>061-282200-
SOUTHWEST WISCONSIN

CITY           SKY/WX    TMP DP  RH WIND       PRES   REMARKS
LA CROSSE      LGT RAIN  74  69  85 S17       29.60F
SPARTA         CLOUDY    69  66  92 S8G16     29.66F
VIROQUA        CLOUDY    68  68 100 S16G26    29.66F
BOSCOBEL       LGT RAIN  74  68  81 MISG      29.68F
PRAIRIE DU CHI CLOUDY    73  67  80 SE7       29.66F
PLATTEVILLE    PTSUNNY   75  72  90 S16       29.74F
$$

WIZ056-057-062-063-064-067-068-282200-
SOUTH CENTRAL WISCONSIN

CITY           SKY/WX    TMP DP  RH WIND       PRES   REMARKS
REEDSBURG      RAIN      67  67 100 S10       29.70F
BARABOO/DELLS  RAIN      67  65  93 S10       29.73F
LONE ROCK      LGT RAIN  73  67  81 S9        29.72F
MINERAL POINT  CLOUDY    72  72 100 S12       29.75F
MADISON        CLOUDY    71  65  81 S13G24    29.76R
MIDDLETON      CLOUDY    72  66  81 SW12G20   29.77R
WATERTOWN      CLOUDY    69  67  93 S9        29.78F THUNDER
MONROE         CLOUDY    72  64  78 S17G23    29.79S
JANESVILLE     CLOUDY    73  64  73 S14G21    29.79S
$$

WIZ051-052-058>065-066-070>072-282200-
SOUTHEAST WISCONSIN

CITY           SKY/WX    TMP DP  RH WIND       PRES   REMARKS
MILWAUKEE      CLOUDY    74  64  71 S14G28    29.80F
WAUKESHA       PTSUNNY   70  63  78 S9G21     29.81F
MILWAUKEE/TIMM PTSUNNY   70  61  73 S6        29.81F
RACINE         LGT RAIN  74  61  63 S12G22    29.83F
KENOSHA        PTSUNNY   73  61  65 S15G25    29.82F
FOND DU LAC    LGT RAIN  66  62  87 S9        29.77F
SHEBOYGAN      LGT RAIN  62  62 100 S8        29.80F FOG
WEST BEND      CLOUDY    64  63  94 SE5       29.81S
JUNEAU         TSTM      65  63  95 SE12      29.79F VSB 1
$$

LSZ147-162-282200-
LAKE SUPERIOR

STATION/POSITION TIME  TEMP    WIND        PRES    WAVE
                       AIR SEA DIR/SP/G            HT/PER
                 (UTC) (F)     (DEG/KT/KT) (MB)    (FT/S)
W MID LAKE BUOY  2050   49 39   90/ 10/ 10 1004.2F   1
DEVILS ISLAND    2000   53      60/ 11/ 12 1003.3F
SAXON HARBOR     2030   67     190/  4/  9 1002.4S
$$

LMZ867-665-643>646-282200-
LAKE MICHIGAN

STATION/POSITION TIME  TEMP    WIND        PRES    WAVE
                       AIR SEA DIR/SP/G            HT/PER
                 (UTC) (F)     (DEG/KT/KT) (MB)    (FT/S)
CHAMBERS ISLAND  2040   62     150/  4/ 12 1008.1F
S GREEN BAY BUOY 2100   63     160/ 17/ 23 1007.0
N MID LAKE BUOY  2050   56 53  180/ 17/ 19 1009.8F   6/ 6
NORTHPORT PIER   2040   61     160/  9/ 16 1008.8F
KEWAUNEE LAKESHO 2048   54     180/ 14/ 16 1008.5F
SHEBOYGAN LAKESH 2100   57     190/ 19/ 21 1009.6F
PORT WASHINGTON  2030   58     200/  5/ 10 1010.5S
ATWATER BUOY     1909   60 52  150/ 12/ 14 1010.3F
MILWAUKEE LAKESH 2050   61     140/ 13/ 14   N/A
S MID LAKE BUOY  1950   65 60  170/ 17/ 19 1010.9F   4/ 5
KENOSHA   LAKESH 2100   62     180/  8/ 14 1009.8
$$

TC  - TEMPERATURE IN CELSIUS
VSB - VISIBILITY IN STATUTE MILES
WCI - WIND CHILL INDEX
HX  - HEAT INDEX





USA.gov is the U.S. government's official web portal to all federal, state and local government web resources and services.